TimeMDT,TemperatureF,Dew PointF,Humidity,Sea Level PressureIn,VisibilityMPH,Wind Direction,Wind SpeedMPH,Gust SpeedMPH,PrecipitationIn,Events,Conditions,WindDirDegrees,DateUTC
12:53 AM,63.0,41.0,45,29.73,10.0,ENE,5.8,17.3,N/A,,Clear,60,2013-05-16 06:53:00
1:53 AM,61.0,41.0,48,29.72,10.0,SSE,9.2,-,N/A,,Clear,150,2013-05-16 07:53:00
2:53 AM,53.1,42.1,66,29.74,10.0,ENE,4.6,-,N/A,,Clear,70,2013-05-16 08:53:00
3:53 AM,57.0,42.1,57,29.73,10.0,South,5.8,-,N/A,,Clear,180,2013-05-16 09:53:00
4:53 AM,55.9,42.1,60,29.74,10.0,SE,5.8,-,N/A,,Clear,140,2013-05-16 10:53:00
5:53 AM,54.0,42.1,64,29.78,10.0,ESE,11.5,-,N/A,,Clear,110,2013-05-16 11:53:00
6:53 AM,54.0,44.1,69,29.80,10.0,Calm,Calm,-,N/A,,Clear,0,2013-05-16 12:53:00
7:53 AM,59.0,44.1,58,29.81,10.0,SSE,8.1,-,N/A,,Clear,160,2013-05-16 13:53:00
8:53 AM,64.0,42.1,45,29.80,10.0,SE,11.5,-,N/A,,Clear,130,2013-05-16 14:53:00
9:53 AM,66.0,41.0,40,29.79,10.0,SSE,9.2,-,N/A,,Clear,160,2013-05-16 15:53:00
10:53 AM,71.1,41.0,34,29.77,10.0,Variable,3.5,-,N/A,,Clear,0,2013-05-16 16:53:00
11:53 AM,73.9,37.0,26,29.74,10.0,Variable,3.5,-,N/A,,Clear,0,2013-05-16 17:53:00
12:53 PM,78.1,35.1,21,29.70,10.0,Calm,Calm,-,N/A,,Clear,0,2013-05-16 18:53:00
1:53 PM,81.0,34.0,18,29.68,10.0,NW,8.1,-,N/A,,Clear,310,2013-05-16 19:53:00
2:53 PM,80.1,33.1,18,29.68,10.0,SE,8.1,-,N/A,,Clear,130,2013-05-16 20:53:00
3:53 PM,80.6,30.2,16,29.82,10.0,Calm,Calm,-,N/A,,Scattered Clouds,0,2013-05-16 21:53:00
4:53 PM,81.0,28.0,14,29.61,10.0,Calm,Calm,-,N/A,,Clear,0,2013-05-16 22:53:00
5:53 PM,81.0,25.0,13,29.61,10.0,SSW,12.7,17.3,N/A,,Clear,210,2013-05-16 23:53:00
6:53 PM,79.0,28.0,15,29.61,10.0,SSW,15.0,-,N/A,,Mostly Cloudy,210,2013-05-17 00:53:00
7:53 PM,78.1,28.0,16,29.60,10.0,SSE,3.5,-,N/A,,Clear,160,2013-05-17 01:53:00
8:53 PM,73.9,30.0,20,29.61,10.0,SSW,5.8,-,N/A,,Clear,200,2013-05-17 02:53:00
9:53 PM,64.9,32.0,29,29.64,10.0,ENE,3.5,-,N/A,,Clear,70,2013-05-17 03:53:00
10:53 PM,66.9,28.9,24,29.63,10.0,East,5.8,-,N/A,,Clear,90,2013-05-17 04:53:00
11:53 PM,66.0,27.0,23,29.62,10.0,ESE,9.2,-,N/A,,Clear,110,2013-05-17 05:53:00